| time (UTC) | temp C | wind direction | speed KPH | gust KPH | rain 1hr cm | rain 24hr cm | rain mn cm | humidity % | barometer mb |
| 20260508124933 | 0 | 206 | 0.0 | 0.0 | 0.00 | 0.00 | 0.00 | 95 | 1025.0 |
| 20260508124431 | 0 | 218 | 0.0 | 1.6 | 0.00 | 0.00 | 0.00 | 95 | 1024.9 |
| 20260508123928 | 0 | 256 | 0.0 | 1.6 | 0.00 | 0.00 | 0.00 | 95 | 1024.5 |
| 20260508123427 | 0 | 225 | 0.0 | 0.0 | 0.00 | 0.00 | 0.00 | 95 | 1024.5 |
| 20260508122923 | 0 | 199 | 0.0 | 1.6 | 0.00 | 0.00 | 0.00 | 95 | 1024.1 |
| 20260508122420 | 0 | 213 | 0.0 | 0.0 | 0.00 | 0.00 | 0.00 | 95 | 1024.2 |
| 20260508121917 | 0 | 191 | 1.6 | 1.6 | 0.00 | 0.00 | 0.00 | 94 | 1023.8 |
| 20260508121415 | 0 | 225 | 1.6 | 1.6 | 0.00 | 0.00 | 0.00 | 94 | 1023.8 |
| 20260508120913 | 0 | 173 | 1.6 | 1.6 | 0.00 | 0.00 | 0.00 | 94 | 1023.7 |
| 20260508120410 | 0 | 223 | 0.0 | 0.0 | 0.00 | 0.00 | 0.00 | 95 | 1024.0 |
| 20260508115908 | 0 | 117 | 8.0 | 9.7 | 0.00 | 0.00 | 0.00 | 94 | 1023.6 |
| 20260508115405 | 0 | 263 | 3.2 | 3.2 | 0.00 | 0.00 | 0.00 | 93 | 1023.6 |
| 20260508114901 | 0 | 354 | 6.4 | 8.0 | 0.00 | 0.00 | 0.00 | 91 | 1023.1 |
| 20260508114358 | 0 | 236 | 1.6 | 1.6 | 0.00 | 0.00 | 0.00 | 89 | 1023.1 |
| 20260508113855 | 0 | 165 | 4.8 | 4.8 | 0.00 | 0.00 | 0.00 | 91 | 1023.3 |
| 20260508113353 | 0 | 205 | 4.8 | 4.8 | 0.00 | 0.00 | 0.00 | 92 | 1023.2 |
| 20260508112850 | 0 | 221 | 4.8 | 4.8 | 0.00 | 0.00 | 0.00 | 90 | 1023.2 |
| 20260508112347 | 0 | 190 | 3.2 | 3.2 | 0.00 | 0.00 | 0.00 | 91 | 1023.2 |
| 20260508111843 | 1 | 225 | 0.0 | 1.6 | 0.00 | 0.00 | 0.00 | 90 | 1023.1 |
| 20260508111340 | 0 | 123 | 4.8 | 8.0 | 0.00 | 0.00 | 0.00 | 92 | 1023.3 |
| 20260508110837 | 0 | 150 | 3.2 | 4.8 | 0.00 | 0.00 | 0.00 | 93 | 1023.3 |
| 20260508110335 | 0 | 140 | 3.2 | 3.2 | 0.00 | 0.00 | 0.00 | 93 | 1023.1 |
| 20260508105835 | 0 | 137 | 8.0 | 8.0 | 0.00 | 0.00 | 0.00 | 93 | 1023.2 |
| 20260508105332 | 0 | 146 | 6.4 | 8.0 | 0.00 | 0.00 | 0.00 | 94 | 1023.1 |
| 20260508104828 | 0 | 236 | 4.8 | 4.8 | 0.00 | 0.00 | 0.00 | 94 | 1023.3 |
| 20260508104325 | 0 | 152 | 8.0 | 9.7 | 0.00 | 0.00 | 0.00 | 94 | 1023.1 |
| 20260508103822 | 0 | 238 | 3.2 | 3.2 | 0.00 | 0.00 | 0.00 | 94 | 1023.6 |
| 20260508103319 | 0 | 193 | 3.2 | 3.2 | 0.00 | 0.00 | 0.00 | 96 | 1023.3 |
| 20260508102817 | 0 | 232 | 0.0 | 0.0 | 0.00 | 0.00 | 0.00 | 96 | 1023.2 |
| 20260508102315 | 0 | 227 | 0.0 | 0.0 | 0.00 | 0.00 | 0.00 | 96 | 1023.1 |
| 20260508101812 | 0 | 192 | 3.2 | 3.2 | 0.00 | 0.00 | 0.00 | 96 | 1023.3 |
| 20260508101309 | 0 | 208 | 1.6 | 3.2 | 0.00 | 0.00 | 0.00 | 96 | 1023.1 |
| 20260508100807 | 0 | 253 | 3.2 | 3.2 | 0.00 | 0.00 | 0.00 | 95 | 1023.1 |
| 20260508100305 | 0 | 194 | 1.6 | 3.2 | 0.00 | 0.00 | 0.00 | 95 | 1022.8 |
| 20260508095800 | 0 | 82 | 1.6 | 1.6 | 0.00 | 0.00 | 0.00 | 96 | 1023.0 |
| 20260508095258 | 0 | 228 | 0.0 | 0.0 | 0.00 | 0.00 | 0.00 | 96 | 1022.8 |
| 20260508094755 | 0 | 194 | 0.0 | 1.6 | 0.00 | 0.00 | 0.00 | 96 | 1023.0 |
| 20260508094252 | 0 | 216 | 0.0 | 0.0 | 0.00 | 0.00 | 0.00 | 95 | 1022.8 |
| 20260508093749 | 0 | 208 | 1.6 | 1.6 | 0.00 | 0.00 | 0.00 | 95 | 1023.0 |
| 20260508093247 | 0 | 196 | 0.0 | 0.0 | 0.00 | 0.00 | 0.00 | 95 | 1022.8 |
| 20260508092743 | 0 | 227 | 1.6 | 1.6 | 0.00 | 0.00 | 0.00 | 94 | 1023.1 |
| 20260508092242 | 0 | 142 | 4.8 | 4.8 | 0.00 | 0.00 | 0.00 | 94 | 1022.7 |
| 20260508091739 | 0 | 242 | 1.6 | 1.6 | 0.00 | 0.00 | 0.00 | 93 | 1023.1 |
| 20260508091236 | 0 | 160 | 3.2 | 3.2 | 0.00 | 0.00 | 0.00 | 93 | 1023.0 |
| 20260508090734 | 0 | 226 | 0.0 | 0.0 | 0.00 | 0.00 | 0.00 | 93 | 1023.1 |
| 20260508090231 | 0 | 140 | 3.2 | 3.2 | 0.00 | 0.00 | 0.00 | 93 | 1023.0 |
| 20260508085721 | 0 | 226 | 0.0 | 0.0 | 0.00 | 0.00 | 0.00 | 92 | 1023.1 |
| 20260508085219 | 0 | 226 | 0.0 | 0.0 | 0.00 | 0.00 | 0.00 | 92 | 1022.8 |
| 20260508084714 | 1 | 206 | 1.6 | 1.6 | 0.00 | 0.00 | 0.00 | 91 | 1023.1 |
| 20260508084213 | 1 | 154 | 1.6 | 1.6 | 0.00 | 0.00 | 0.00 | 90 | 1023.3 |
| 20260508083710 | 1 | 229 | 0.0 | 0.0 | 0.00 | 0.00 | 0.00 | 89 | 1023.1 |
| 20260508083207 | 1 | 221 | 0.0 | 0.0 | 0.00 | 0.00 | 0.00 | 89 | 1023.1 |
| 20260508082702 | 1 | 198 | 1.6 | 1.6 | 0.00 | 0.00 | 0.00 | 90 | 1023.1 |
| 20260508082200 | 1 | 228 | 1.6 | 1.6 | 0.00 | 0.00 | 0.00 | 89 | 1023.5 |
| 20260508081657 | 2 | 186 | 0.0 | 0.0 | 0.00 | 0.00 | 0.00 | 89 | 1023.2 |
| 20260508081153 | 2 | 228 | 3.2 | 3.2 | 0.00 | 0.00 | 0.00 | 88 | 1023.2 |
| 20260508080650 | 1 | 200 | 1.6 | 1.6 | 0.00 | 0.00 | 0.00 | 89 | 1023.3 |
| 20260508080149 | 1 | 210 | 0.0 | 0.0 | 0.00 | 0.00 | 0.00 | 89 | 1023.6 |
| 20260508075644 | 1 | 187 | 1.6 | 3.2 | 0.00 | 0.00 | 0.00 | 88 | 1023.2 |
| 20260508075142 | 2 | 208 | 0.0 | 1.6 | 0.00 | 0.00 | 0.00 | 88 | 1023.5 |
| 20260508074639 | 2 | 226 | 0.0 | 0.0 | 0.00 | 0.00 | 0.00 | 87 | 1023.6 |
| 20260508074136 | 3 | 241 | 1.6 | 3.2 | 0.00 | 0.00 | 0.00 | 83 | 1023.7 |
| 20260508073633 | 3 | 221 | 0.0 | 1.6 | 0.00 | 0.00 | 0.00 | 82 | 1023.7 |
| 20260508073131 | 3 | 213 | 0.0 | 0.0 | 0.00 | 0.00 | 0.00 | 82 | 1024.0 |
| 20260508072627 | 3 | 213 | 0.0 | 0.0 | 0.00 | 0.00 | 0.00 | 81 | 1024.0 |
| 20260508072124 | 3 | 170 | 3.2 | 3.2 | 0.00 | 0.00 | 0.00 | 81 | 1023.7 |
| 20260508071621 | 3 | 157 | 3.2 | 4.8 | 0.00 | 0.00 | 0.00 | 81 | 1024.0 |
| 20260508071120 | 3 | 206 | 1.6 | 1.6 | 0.00 | 0.00 | 0.00 | 80 | 1023.8 |
| 20260508070617 | 2 | 166 | 4.8 | 4.8 | 0.00 | 0.00 | 0.00 | 82 | 1024.1 |
| 20260508070115 | 2 | 179 | 3.2 | 3.2 | 0.00 | 0.00 | 0.00 | 85 | 1024.1 |
| 20260508065612 | 2 | 128 | 3.2 | 4.8 | 0.00 | 0.00 | 0.00 | 84 | 1024.5 |
| 20260508065110 | 2 | 179 | 3.2 | 3.2 | 0.00 | 0.00 | 0.00 | 82 | 1024.5 |
| 20260508064608 | 2 | 195 | 1.6 | 1.6 | 0.00 | 0.00 | 0.00 | 84 | 1024.7 |
| 20260508064105 | 2 | 228 | 0.0 | 0.0 | 0.00 | 0.00 | 0.00 | 83 | 1024.5 |
| 20260508063602 | 1 | 165 | 3.2 | 3.2 | 0.00 | 0.00 | 0.00 | 84 | 1024.5 |
| 20260508063101 | 1 | 213 | 0.0 | 0.0 | 0.00 | 0.00 | 0.00 | 85 | 1024.1 |
| 20260508062558 | 1 | 227 | 0.0 | 0.0 | 0.00 | 0.00 | 0.00 | 85 | 1024.1 |
| 20260508062054 | 2 | 214 | 0.0 | 0.0 | 0.00 | 0.00 | 0.00 | 85 | 1024.2 |
| 20260508061552 | 1 | 148 | 4.8 | 4.8 | 0.00 | 0.00 | 0.00 | 85 | 1024.2 |
| 20260508061049 | 2 | 227 | 1.6 | 1.6 | 0.00 | 0.00 | 0.00 | 82 | 1024.2 |
| 20260508060545 | 1 | 145 | 4.8 | 4.8 | 0.00 | 0.00 | 0.00 | 84 | 1023.7 |
| 20260508060043 | 1 | 226 | 0.0 | 0.0 | 0.00 | 0.00 | 0.00 | 83 | 1024.1 |
| 20260508055538 | 1 | 182 | 3.2 | 3.2 | 0.00 | 0.28 | 0.28 | 84 | 1024.2 |
| 20260508055036 | 2 | 194 | 1.6 | 1.6 | 0.00 | 0.28 | 0.28 | 83 | 1024.0 |
| 20260508054532 | 2 | 149 | 4.8 | 4.8 | 0.00 | 0.28 | 0.28 | 83 | 1024.0 |
| 20260508054029 | 2 | 228 | 1.6 | 1.6 | 0.00 | 0.28 | 0.28 | 81 | 1024.2 |
| 20260508053526 | 2 | 210 | 1.6 | 1.6 | 0.00 | 0.28 | 0.28 | 82 | 1024.0 |
| 20260508053025 | 2 | 196 | 3.2 | 3.2 | 0.00 | 0.28 | 0.28 | 82 | 1024.0 |
| 20260508052521 | 2 | 214 | 0.0 | 1.6 | 0.00 | 0.28 | 0.28 | 81 | 1023.7 |
| 20260508052017 | 2 | 226 | 0.0 | 0.0 | 0.00 | 0.28 | 0.28 | 81 | 1023.6 |
| 20260508051514 | 2 | 208 | 0.0 | 1.6 | 0.00 | 0.28 | 0.28 | 82 | 1024.2 |
| 20260508051009 | 2 | 218 | 0.0 | 0.0 | 0.00 | 0.28 | 0.28 | 80 | 1023.7 |
| 20260508050506 | 2 | 188 | 1.6 | 1.6 | 0.00 | 0.28 | 0.28 | 80 | 1023.5 |
| 20260508050003 | 3 | 234 | 1.6 | 1.6 | 0.00 | 0.28 | 0.28 | 79 | 1023.6 |
| 20260508045500 | 3 | 197 | 0.0 | 0.0 | 0.00 | 0.28 | 0.28 | 78 | 1023.5 |
| 20260508044957 | 3 | 223 | 1.6 | 1.6 | 0.00 | 0.28 | 0.28 | 80 | 1023.5 |
| 20260508044454 | 3 | 211 | 1.6 | 1.6 | 0.00 | 0.28 | 0.28 | 80 | 1023.5 |
| 20260508043950 | 3 | 177 | 1.6 | 1.6 | 0.00 | 0.28 | 0.28 | 81 | 1023.3 |
| 20260508043447 | 3 | 240 | 3.2 | 3.2 | 0.00 | 0.28 | 0.28 | 77 | 1023.6 |
| 20260508042943 | 3 | 195 | 1.6 | 3.2 | 0.00 | 0.28 | 0.28 | 77 | 1023.6 |
| 20260508042441 | 3 | 219 | 0.0 | 0.0 | 0.00 | 0.28 | 0.28 | 79 | 1023.5 |
| 20260508041938 | 3 | 226 | 0.0 | 0.0 | 0.00 | 0.28 | 0.28 | 79 | 1023.5 |
| 20260508041434 | 3 | 219 | 0.0 | 0.0 | 0.00 | 0.28 | 0.28 | 78 | 1023.1 |
| 20260508040931 | 3 | 143 | 4.8 | 4.8 | 0.00 | 0.28 | 0.28 | 80 | 1023.5 |
| 20260508040429 | 3 | 135 | 3.2 | 3.2 | 0.00 | 0.28 | 0.28 | 80 | 1023.2 |
| 20260508035926 | 3 | 233 | 0.0 | 0.0 | 0.00 | 0.28 | 0.28 | 79 | 1023.3 |
| 20260508035423 | 4 | 231 | 1.6 | 1.6 | 0.00 | 0.28 | 0.28 | 76 | 1023.1 |
| 20260508034919 | 3 | 143 | 4.8 | 4.8 | 0.00 | 0.28 | 0.28 | 79 | 1023.6 |
| 20260508034417 | 3 | 218 | 0.0 | 0.0 | 0.00 | 0.28 | 0.28 | 79 | 1024.0 |
| 20260508033913 | 4 | 239 | 3.2 | 3.2 | 0.00 | 0.28 | 0.28 | 76 | 1023.3 |
| 20260508033412 | 4 | 194 | 3.2 | 3.2 | 0.00 | 0.28 | 0.28 | 78 | 1023.3 |
| 20260508032909 | 4 | 241 | 3.2 | 3.2 | 0.00 | 0.28 | 0.28 | 77 | 1023.5 |
| 20260508032406 | 5 | 226 | 1.6 | 1.6 | 0.00 | 0.28 | 0.28 | 70 | 1023.3 |
| 20260508031903 | 4 | 178 | 3.2 | 3.2 | 0.00 | 0.28 | 0.28 | 76 | 1023.2 |
| 20260508031400 | 5 | 227 | 0.0 | 0.0 | 0.00 | 0.28 | 0.28 | 73 | 1023.0 |
| 20260508030855 | 6 | 189 | 1.6 | 1.6 | 0.00 | 0.28 | 0.28 | 72 | 1023.3 |
| 20260508030353 | 6 | 179 | 1.6 | 1.6 | 0.00 | 0.28 | 0.28 | 68 | 1023.2 |
| 20260508025850 | 7 | 196 | 1.6 | 1.6 | 0.00 | 0.28 | 0.28 | 64 | 1023.3 |
| 20260508025347 | 5 | 211 | 0.0 | 1.6 | 0.00 | 0.28 | 0.28 | 70 | 1023.1 |
| 20260508024843 | 5 | 163 | 3.2 | 3.2 | 0.00 | 0.28 | 0.28 | 69 | 1023.5 |
| 20260508024340 | 6 | 233 | 3.2 | 3.2 | 0.00 | 0.28 | 0.28 | 69 | 1023.2 |
| 20260508023837 | 6 | 178 | 0.0 | 0.0 | 0.00 | 0.28 | 0.28 | 69 | 1023.2 |
| 20260508023334 | 6 | 219 | 0.0 | 0.0 | 0.00 | 0.28 | 0.28 | 68 | 1023.1 |
| 20260508022830 | 6 | 222 | 0.0 | 0.0 | 0.00 | 0.28 | 0.28 | 67 | 1023.3 |
| 20260508022326 | 6 | 173 | 1.6 | 3.2 | 0.00 | 0.28 | 0.28 | 70 | 1023.7 |
| 20260508021824 | 7 | 230 | 0.0 | 0.0 | 0.00 | 0.28 | 0.28 | 66 | 1023.5 |
| 20260508021320 | 7 | 225 | 0.0 | 0.0 | 0.00 | 0.28 | 0.28 | 65 | 1023.2 |
| 20260508020816 | 7 | 224 | 0.0 | 0.0 | 0.00 | 0.28 | 0.28 | 62 | 1023.1 |
| 20260508020314 | 8 | 225 | 0.0 | 0.0 | 0.00 | 0.28 | 0.28 | 61 | 1023.2 |
| 20260508015810 | 8 | 226 | 0.0 | 0.0 | 0.00 | 0.28 | 0.28 | 57 | 1022.7 |
| 20260508015308 | 10 | 192 | 1.6 | 3.2 | 0.00 | 0.28 | 0.28 | 55 | 1022.7 |
| 20260508014805 | 10 | 267 | 11.3 | 16.1 | 0.00 | 0.28 | 0.28 | 53 | 1022.7 |
| 20260508014302 | 10 | 197 | 0.0 | 0.0 | 0.00 | 0.28 | 0.28 | 53 | 1022.5 |
| 20260508013757 | 10 | 263 | 3.2 | 3.2 | 0.00 | 0.28 | 0.28 | 51 | 1022.7 |
| 20260508013254 | 10 | 247 | 1.6 | 3.2 | 0.00 | 0.28 | 0.28 | 50 | 1022.7 |
| 20260508012751 | 11 | 273 | 6.4 | 8.0 | 0.00 | 0.28 | 0.28 | 50 | 1022.3 |
| 20260508012248 | 11 | 228 | 4.8 | 4.8 | 0.00 | 0.28 | 0.28 | 47 | 1022.6 |
| 20260508011747 | 11 | 277 | 14.5 | 17.7 | 0.00 | 0.28 | 0.28 | 45 | 1022.5 |
| 20260508011243 | 11 | 308 | 8.0 | 11.3 | 0.00 | 0.28 | 0.28 | 44 | 1022.1 |
| 20260508010740 | 11 | 255 | 8.0 | 11.3 | 0.00 | 0.28 | 0.28 | 43 | 1022.0 |
| 20260508010238 | 12 | 230 | 0.0 | 1.6 | 0.00 | 0.28 | 0.28 | 44 | 1022.0 |
| 20260508005735 | 12 | 259 | 6.4 | 8.0 | 0.00 | 0.28 | 0.28 | 43 | 1022.2 |
| 20260508005232 | 12 | 287 | 1.6 | 1.6 | 0.00 | 0.28 | 0.28 | 42 | 1021.7 |
| 20260508004727 | 13 | 221 | 3.2 | 3.2 | 0.00 | 0.28 | 0.28 | 42 | 1022.1 |
| 20260508004224 | 12 | 226 | 4.8 | 8.0 | 0.00 | 0.28 | 0.28 | 41 | 1022.0 |
| 20260508003721 | 13 | 246 | 3.2 | 4.8 | 0.00 | 0.28 | 0.28 | 41 | 1022.0 |
| 20260508003218 | 13 | 221 | 3.2 | 3.2 | 0.00 | 0.28 | 0.28 | 42 | 1021.8 |
| 20260508002714 | 13 | 272 | 6.4 | 8.0 | 0.00 | 0.28 | 0.28 | 39 | 1021.8 |
| 20260508002212 | 14 | 244 | 8.0 | 9.7 | 0.00 | 0.28 | 0.28 | 38 | 1021.6 |
| 20260508001707 | 14 | 203 | 4.8 | 9.7 | 0.00 | 0.28 | 0.28 | 38 | 1021.7 |
| 20260508001158 | 14 | 245 | 6.4 | 8.0 | 0.00 | 0.28 | 0.28 | 37 | 1022.0 |
| 20260508000654 | 14 | 296 | 9.7 | 14.5 | 0.00 | 0.28 | 0.28 | 39 | 1021.6 |
| 20260508000151 | 14 | 227 | 14.5 | 16.1 | 0.00 | 0.28 | 0.28 | 38 | 1021.6 |
| 20260507235648 | 13 | 235 | 4.8 | 4.8 | 0.00 | 0.28 | 0.28 | 38 | 1021.8 |
| 20260507235145 | 14 | 229 | 6.4 | 8.0 | 0.00 | 0.28 | 0.28 | 41 | 1022.0 |
| 20260507234642 | 13 | 250 | 6.4 | 9.7 | 0.00 | 0.28 | 0.28 | 38 | 1021.7 |
| 20260507234138 | 13 | 351 | 11.3 | 14.5 | 0.00 | 0.28 | 0.28 | 40 | 1022.0 |
| 20260507233635 | 13 | 206 | 6.4 | 8.0 | 0.00 | 0.28 | 0.28 | 37 | 1021.8 |
| 20260507233134 | 14 | 352 | 19.3 | 25.7 | 0.00 | 0.28 | 0.28 | 36 | 1021.8 |
| 20260507232630 | 15 | 239 | 11.3 | 14.5 | 0.00 | 0.28 | 0.28 | 36 | 1021.7 |
| 20260507232127 | 14 | 204 | 4.8 | 8.0 | 0.00 | 0.28 | 0.28 | 37 | 1022.0 |
| 20260507231623 | 14 | 356 | 9.7 | 11.3 | 0.00 | 0.28 | 0.28 | 38 | 1021.6 |
| 20260507231121 | 13 | 282 | 6.4 | 8.0 | 0.00 | 0.28 | 0.28 | 38 | 1021.8 |
| 20260507230617 | 13 | 232 | 4.8 | 8.0 | 0.00 | 0.28 | 0.28 | 37 | 1021.7 |
| 20260507230114 | 13 | 243 | 3.2 | 4.8 | 0.00 | 0.28 | 0.28 | 37 | 1022.0 |
| 20260507225609 | 13 | 223 | 0.0 | 0.0 | 0.00 | 0.28 | 0.28 | 38 | 1021.4 |
| 20260507225106 | 13 | 238 | 6.4 | 8.0 | 0.00 | 0.28 | 0.28 | 38 | 1021.8 |
| 20260507224601 | 13 | 270 | 3.2 | 3.2 | 0.00 | 0.28 | 0.28 | 41 | 1021.8 |
| 20260507224058 | 13 | 316 | 11.3 | 12.9 | 0.00 | 0.28 | 0.28 | 38 | 1021.8 |
| 20260507223554 | 13 | 354 | 4.8 | 8.0 | 0.00 | 0.28 | 0.28 | 38 | 1022.0 |
| 20260507223051 | 12 | 233 | 4.8 | 4.8 | 0.00 | 0.28 | 0.28 | 39 | 1022.0 |
| 20260507222548 | 12 | 300 | 11.3 | 14.5 | 0.00 | 0.28 | 0.28 | 38 | 1022.0 |
| 20260507222045 | 12 | 222 | 6.4 | 8.0 | 0.00 | 0.28 | 0.28 | 39 | 1022.0 |
| 20260507221541 | 12 | 309 | 8.0 | 11.3 | 0.00 | 0.28 | 0.28 | 39 | 1021.8 |
| 20260507221038 | 12 | 325 | 8.0 | 11.3 | 0.00 | 0.28 | 0.28 | 39 | 1022.3 |
| 20260507220535 | 12 | 248 | 3.2 | 3.2 | 0.00 | 0.28 | 0.28 | 41 | 1022.3 |
| 20260507220033 | 12 | 267 | 3.2 | 3.2 | 0.00 | 0.28 | 0.28 | 39 | 1022.1 |
| 20260507215528 | 12 | 254 | 4.8 | 8.0 | 0.00 | 0.28 | 0.28 | 40 | 1022.2 |
| 20260507215027 | 12 | 317 | 11.3 | 12.9 | 0.00 | 0.28 | 0.28 | 38 | 1022.6 |
| 20260507214524 | 12 | 292 | 8.0 | 9.7 | 0.00 | 0.28 | 0.28 | 40 | 1022.6 |
| 20260507214019 | 12 | 279 | 4.8 | 8.0 | 0.00 | 0.28 | 0.28 | 41 | 1022.5 |
| 20260507213516 | 12 | 281 | 8.0 | 9.7 | 0.00 | 0.28 | 0.28 | 39 | 1023.0 |
| 20260507213013 | 12 | 253 | 4.8 | 4.8 | 0.00 | 0.28 | 0.28 | 40 | 1022.5 |
| 20260507212508 | 12 | 262 | 4.8 | 8.0 | 0.00 | 0.28 | 0.28 | 39 | 1022.2 |
| 20260507212005 | 12 | 261 | 11.3 | 11.3 | 0.00 | 0.28 | 0.28 | 38 | 1022.7 |
| 20260507211502 | 12 | 239 | 6.4 | 8.0 | 0.00 | 0.28 | 0.28 | 41 | 1022.7 |
| 20260507210959 | 12 | 221 | 6.4 | 9.7 | 0.00 | 0.28 | 0.28 | 41 | 1023.0 |
| 20260507210455 | 12 | 254 | 6.4 | 8.0 | 0.00 | 0.28 | 0.28 | 39 | 1022.7 |
| 20260507205952 | 12 | 268 | 6.4 | 8.0 | 0.00 | 0.28 | 0.28 | 40 | 1023.1 |
| 20260507205444 | 12 | 222 | 3.2 | 3.2 | 0.00 | 0.28 | 0.28 | 43 | 1023.0 |
| 20260507204940 | 12 | 229 | 4.8 | 8.0 | 0.00 | 0.28 | 0.28 | 41 | 1023.3 |
| 20260507204436 | 12 | 281 | 6.4 | 8.0 | 0.00 | 0.28 | 0.28 | 43 | 1023.3 |
| 20260507203934 | 13 | 288 | 8.0 | 9.7 | 0.00 | 0.28 | 0.28 | 43 | 1023.5 |
| 20260507203432 | 12 | 225 | 1.6 | 3.2 | 0.00 | 0.28 | 0.28 | 45 | 1023.5 |
| 20260507202928 | 11 | 242 | 4.8 | 4.8 | 0.00 | 0.28 | 0.28 | 47 | 1023.2 |
| 20260507202425 | 12 | 228 | 4.8 | 4.8 | 0.00 | 0.28 | 0.28 | 49 | 1023.3 |
| 20260507201920 | 11 | 232 | 1.6 | 3.2 | 0.00 | 0.28 | 0.28 | 42 | 1023.6 |
| 20260507201415 | 11 | 256 | 4.8 | 4.8 | 0.00 | 0.28 | 0.28 | 40 | 1023.3 |
| 20260507200913 | 11 | 247 | 4.8 | 9.7 | 0.00 | 0.28 | 0.28 | 42 | 1023.6 |
| 20260507200408 | 12 | 224 | 4.8 | 4.8 | 0.00 | 0.28 | 0.28 | 43 | 1023.6 |
| 20260507195904 | 11 | 242 | 4.8 | 4.8 | 0.00 | 0.28 | 0.28 | 43 | 1023.6 |
| 20260507195402 | 12 | 335 | 6.4 | 9.7 | 0.00 | 0.28 | 0.28 | 42 | 1023.6 |
| 20260507194859 | 12 | 271 | 12.9 | 17.7 | 0.00 | 0.28 | 0.28 | 43 | 1023.6 |
| 20260507194356 | 12 | 228 | 1.6 | 3.2 | 0.00 | 0.28 | 0.28 | 42 | 1023.6 |
| 20260507193852 | 12 | 359 | 8.0 | 11.3 | 0.00 | 0.28 | 0.28 | 44 | 1023.5 |
| 20260507193349 | 12 | 234 | 1.6 | 1.6 | 0.00 | 0.28 | 0.28 | 42 | 1023.7 |
| 20260507192846 | 12 | 250 | 1.6 | 3.2 | 0.00 | 0.28 | 0.28 | 40 | 1023.7 |
| 20260507192342 | 12 | 240 | 3.2 | 3.2 | 0.00 | 0.28 | 0.28 | 48 | 1024.0 |
| 20260507191838 | 13 | 230 | 1.6 | 1.6 | 0.00 | 0.28 | 0.28 | 40 | 1023.6 |
| 20260507191334 | 12 | 262 | 4.8 | 4.8 | 0.00 | 0.28 | 0.28 | 42 | 1023.6 |
| 20260507190832 | 12 | 225 | 4.8 | 8.0 | 0.00 | 0.28 | 0.28 | 42 | 1023.7 |
| 20260507190330 | 13 | 311 | 14.5 | 17.7 | 0.00 | 0.28 | 0.28 | 43 | 1023.6 |
| 20260507185829 | 13 | 214 | 4.8 | 8.0 | 0.00 | 0.28 | 0.28 | 41 | 1023.8 |
| 20260507185325 | 12 | 231 | 3.2 | 4.8 | 0.00 | 0.28 | 0.28 | 48 | 1023.8 |
| 20260507184822 | 11 | 227 | 3.2 | 3.2 | 0.00 | 0.28 | 0.28 | 45 | 1024.0 |
| 20260507184320 | 12 | 249 | 6.4 | 8.0 | 0.00 | 0.28 | 0.28 | 49 | 1023.7 |
| 20260507183816 | 12 | 349 | 1.6 | 3.2 | 0.00 | 0.28 | 0.28 | 46 | 1024.0 |
| 20260507183314 | 12 | 295 | 6.4 | 8.0 | 0.00 | 0.28 | 0.28 | 50 | 1023.7 |
| 20260507182811 | 12 | 261 | 9.7 | 12.9 | 0.00 | 0.28 | 0.28 | 46 | 1023.8 |
| 20260507182307 | 12 | 205 | 6.4 | 9.7 | 0.00 | 0.28 | 0.28 | 47 | 1023.8 |
| 20260507181803 | 11 | 46 | 8.0 | 11.3 | 0.00 | 0.28 | 0.28 | 53 | 1024.1 |
| 20260507181259 | 11 | 114 | 8.0 | 9.7 | 0.00 | 0.28 | 0.28 | 51 | 1023.8 |
| 20260507180755 | 10 | 216 | 0.0 | 1.6 | 0.00 | 0.28 | 0.28 | 67 | 1024.1 |
| 20260507180253 | 8 | 218 | 0.0 | 0.0 | 0.00 | 0.28 | 0.28 | 71 | 1023.7 |
| 20260507175748 | 7 | 223 | 0.0 | 0.0 | 0.00 | 0.28 | 0.28 | 76 | 1024.0 |
| 20260507175246 | 7 | 216 | 0.0 | 0.0 | 0.00 | 0.28 | 0.28 | 80 | 1024.0 |
| 20260507174743 | 7 | 271 | 0.0 | 1.6 | 0.00 | 0.28 | 0.28 | 77 | 1024.2 |
| 20260507174241 | 7 | 196 | 3.2 | 4.8 | 0.00 | 0.28 | 0.28 | 75 | 1024.4 |
| 20260507173738 | 7 | 198 | 3.2 | 3.2 | 0.00 | 0.28 | 0.28 | 77 | 1024.4 |
| 20260507173235 | 6 | 224 | 0.0 | 0.0 | 0.00 | 0.28 | 0.28 | 75 | 1024.7 |
| 20260507172731 | 6 | 228 | 0.0 | 1.6 | 0.00 | 0.28 | 0.28 | 75 | 1024.5 |
| 20260507172229 | 6 | 233 | 0.0 | 1.6 | 0.00 | 0.28 | 0.28 | 77 | 1024.4 |
| 20260507171728 | 6 | 216 | 1.6 | 1.6 | 0.00 | 0.28 | 0.28 | 78 | 1024.4 |
| 20260507171226 | 5 | 209 | 3.2 | 3.2 | 0.00 | 0.28 | 0.28 | 78 | 1024.5 |
| 20260507170723 | 5 | 219 | 0.0 | 1.6 | 0.00 | 0.28 | 0.28 | 80 | 1024.4 |
| 20260507170220 | 5 | 192 | 1.6 | 1.6 | 0.00 | 0.28 | 0.28 | 82 | 1024.5 |
| 20260507165715 | 5 | 186 | 0.0 | 1.6 | 0.00 | 0.28 | 0.28 | 83 | 1024.7 |
| 20260507165212 | 5 | 189 | 3.2 | 3.2 | 0.00 | 0.28 | 0.28 | 85 | 1024.9 |
| 20260507164708 | 5 | 252 | 4.8 | 4.8 | 0.00 | 0.28 | 0.28 | 84 | 1024.9 |
| 20260507164206 | 5 | 229 | 0.0 | 0.0 | 0.00 | 0.28 | 0.28 | 84 | 1024.7 |
| 20260507163702 | 5 | 225 | 1.6 | 1.6 | 0.00 | 0.28 | 0.28 | 80 | 1024.5 |
| 20260507163200 | 5 | 218 | 0.0 | 1.6 | 0.00 | 0.28 | 0.28 | 83 | 1024.9 |
| 20260507162655 | 5 | 206 | 1.6 | 1.6 | 0.00 | 0.28 | 0.28 | 80 | 1024.9 |
| 20260507162152 | 5 | 192 | 3.2 | 3.2 | 0.00 | 0.28 | 0.28 | 83 | 1025.0 |
| 20260507161648 | 5 | 240 | 1.6 | 3.2 | 0.00 | 0.28 | 0.28 | 80 | 1024.6 |
| 20260507161145 | 5 | 202 | 4.8 | 4.8 | 0.00 | 0.28 | 0.28 | 73 | 1024.7 |
| 20260507160641 | 5 | 139 | 8.0 | 8.0 | 0.00 | 0.28 | 0.28 | 83 | 1024.9 |
| 20260507160138 | 5 | 167 | 3.2 | 3.2 | 0.00 | 0.28 | 0.28 | 81 | 1024.9 |
| 20260507155634 | 5 | 227 | 0.0 | 0.0 | 0.18 | 0.28 | 0.28 | 81 | 1025.1 |
| 20260507155130 | 5 | 266 | 1.6 | 3.2 | 0.18 | 0.28 | 0.28 | 83 | 1025.1 |
| 20260507154627 | 6 | 152 | 4.8 | 8.0 | 0.00 | 0.25 | 0.25 | 84 | 1025.2 |
| 20260507154125 | 6 | 183 | 4.8 | 8.0 | 0.00 | 0.25 | 0.25 | 72 | 1025.0 |
| 20260507153621 | 6 | 203 | 1.6 | 1.6 | 0.00 | 0.25 | 0.25 | 77 | 1025.1 |
| 20260507153117 | 6 | 129 | 1.6 | 3.2 | 0.13 | 0.25 | 0.25 | 80 | 1025.2 |
| 20260507152614 | 6 | 217 | 1.6 | 1.6 | 0.13 | 0.25 | 0.25 | 83 | 1024.9 |
| 20260507152110 | 7 | 237 | 6.4 | 8.0 | 0.00 | 0.23 | 0.23 | 79 | 1025.1 |
| 20260507151606 | 7 | 208 | 3.2 | 3.2 | 0.18 | 0.23 | 0.23 | 74 | 1024.7 |
| 20260507151103 | 7 | 199 | 1.6 | 1.6 | 0.30 | 0.23 | 0.23 | 65 | 1024.7 |
| 20260507150600 | 8 | 284 | 4.8 | 4.8 | 0.30 | 0.20 | 0.20 | 60 | 1024.9 |
| 20260507150057 | 9 | 194 | 1.6 | 1.6 | 0.30 | 0.18 | 0.18 | 60 | 1025.1 |
| 20260507145552 | 9 | 111 | 3.2 | 3.2 | 0.43 | 0.15 | 0.15 | 63 | 1025.0 |
| 20260507145050 | 8 | 262 | 4.8 | 4.8 | 0.48 | 0.13 | 0.13 | 68 | 1025.0 |
| 20260507144546 | 8 | 204 | 1.6 | 1.6 | 0.30 | 0.08 | 0.08 | 65 | 1025.1 |
| 20260507144044 | 8 | 171 | 4.8 | 4.8 | 0.13 | 0.05 | 0.05 | 73 | 1025.1 |
| 20260507143541 | 8 | 164 | 1.6 | 1.6 | 0.18 | 0.03 | 0.03 | 69 | 1024.7 |
| 20260507143039 | 8 | 226 | 3.2 | 3.2 | 0.18 | 0.03 | 0.03 | 69 | 1025.0 |
| 20260507142533 | 6 | 202 | 0.0 | 0.0 | 0.00 | 0.00 | 0.00 | 67 | 1024.5 |
| 20260507142031 | 4 | 215 | 0.0 | 0.0 | 0.00 | 0.00 | 0.00 | 82 | 1025.0 |
| 20260507141526 | 5 | 231 | 0.0 | 1.6 | 0.00 | 0.00 | 0.00 | 77 | 1024.6 |
| 20260507141023 | 4 | 237 | 0.0 | 0.0 | 0.00 | 0.00 | 0.00 | 77 | 1025.0 |
| 20260507140520 | 3 | 223 | 3.2 | 3.2 | 0.00 | 0.00 | 0.00 | 81 | 1024.9 |
| 20260507140012 | 4 | 230 | 3.2 | 3.2 | 0.00 | 0.00 | 0.00 | 77 | 1024.7 |
| 20260507135508 | 3 | 230 | 1.6 | 1.6 | 0.00 | 0.00 | 0.00 | 74 | 1025.0 |
| 20260507135006 | 2 | 157 | 3.2 | 3.2 | 0.00 | 0.00 | 0.00 | 82 | 1025.1 |
| 20260507134502 | 1 | 107 | 11.3 | 14.5 | 0.00 | 0.00 | 0.00 | 85 | 1025.2 |
| 20260507133958 | 1 | 139 | 6.4 | 8.0 | 0.00 | 0.00 | 0.00 | 82 | 1024.6 |
| 20260507133454 | 1 | 306 | 3.2 | 4.8 | 0.00 | 0.00 | 0.00 | 85 | 1024.7 |
| 20260507132953 | 0 | 162 | 4.8 | 4.8 | 0.00 | 0.00 | 0.00 | 87 | 1024.9 |
| 20260507132449 | 0 | 252 | 3.2 | 3.2 | 0.00 | 0.00 | 0.00 | 85 | 1024.7 |
| 20260507131945 | 0 | 210 | 0.0 | 1.6 | 0.00 | 0.00 | 0.00 | 87 | 1024.9 |
| 20260507131442 | 0 | 221 | 1.6 | 1.6 | 0.00 | 0.00 | 0.00 | 88 | 1024.6 |
| 20260507130939 | -1 | 211 | 0.0 | 0.0 | 0.00 | 0.00 | 0.00 | 89 | 1025.0 |
| 20260507130436 | 0 | 237 | 4.8 | 4.8 | 0.00 | 0.00 | 0.00 | 90 | 1025.0 |
| 20260507125935 | -1 | 137 | 3.2 | 3.2 | 0.00 | 0.00 | 0.00 | 90 | 1024.7 |
| 20260507125433 | -2 | 224 | 0.0 | 0.0 | 0.00 | 0.00 | 0.00 | 92 | 1025.0 |